Location: Newark
(17.9939°S, 31.0481°E)
Time: 18:32:00
(UTC+00:00)

Courier 1B - Pass Details

Date: 21 November 2019
Orbit: 963 x 1209 km, 28.3° (Epoch: 11 December)

Event Time Altitude Azimuth Distance (km) Brightness Sun altitude
Rises 17:54:00 0° 247° (WSW) 3,979 12.1 -22.5°
Reaches altitude 10° 17:56:55 10° 240° (WSW) 3,053 11.2 -23.1°
Maximum altitude 18:04:06 43° 170° (S) 1,614 8.7 -24.5°
Enters shadow 18:08:14 25° 115° (ESE) 2,221 9.1 -25.3°
